Theta_e
284 285 285 284 284 284 284 283 282 282 283 282 282 282 282 282 282 282 282 282 283 283
284 284 284 283 284 284 283 282 282 282 282 282 281 281 281 281 280 281 281 282 282 283
285 284 284 284 283 283 283 282 281 281 281 281 281 280 280 280 280 280 281 281 281 282
285 284 284 283 283 283 283 282 281 280 280 280 280 279 279 279 279 278 279 280 280 280
285 284 283 283 283 283 282 282 281 280 279 279 279 279 278 277 278 277 278 278 279 278
284 284 283 283 283 283 282 281 280 279 278 278 278 277 277 277 277 277 278 278 278 277
284 283 284 284 283 282 282 280 279 278 278 276 276 276 276 276 277 277 278 278 277 276
283 283 283 282 282 282 281 280 279 277 276 276 275 276 276 276 277 277 277 277 276 276
282 282 282 282 281 281 280 280 279 278 277 275 276 276 276 276 277 277 276 275 275 275
282 282 282 281 281 280 280 280 278 278 277 275 276 275 275 276 276 276 275 274 274 274
280 280 280 280 280 280 280 279 278 277 276 275 274 274 275 275 275 275 274 273 273 273
278 278 278 278 278 279 279 279 278 277 274 272 272 273 274 274 274 274 273 273 274 273
275 275 276 277 277 279 278 278 277 275 274 271 270 272 273 273 274 273 273 274 274 274
273 273 274 275 276 276 276 275 274 273 273 270 269 269 272 273 273 273 273 273 274 275
Wind_Speed
5 3 2 1 0 1 2 3 4 5 5 6 7 7 7 5 5 6 6 7 6 5
6 6 4 4 3 1 1 1 2 4 5 5 6 7 7 5 6 7 6 6 7 6
7 7 6 5 5 5 3 3 3 3 4 5 5 6 7 6 6 7 6 5 8 7
8 8 7 7 6 6 5 5 4 4 4 5 5 5 6 6 6 7 7 7 7 8
8 8 8 8 8 7 7 6 5 5 5 5 5 5 6 7 6 7 8 8 8 8
9 9 9 9 9 9 8 7 6 6 6 5 5 5 6 6 7 8 8 8 8 9
9 8 7 7 8 9 9 8 8 7 7 6 5 6 6 7 8 8 7 8 8 9
6 7 6 6 7 8 9 8 8 7 7 7 6 6 6 7 8 8 9 8 8 8
6 6 6 6 7 8 9 9 9 9 9 9 7 10 11 10 9 9 9 8 8 9
6 5 5 6 7 9 10 9 11 10 10 10 9 11 12 12 9 9 8 9 9 9
3 5 5 6 8 9 9 9 10 10 11 10 8 12 13 13 10 9 10 10 9 10
4 5 6 7 7 8 9 10 10 8 10 10 9 12 12 11 9 10 11 10 10 10
6 7 8 9 9 9 9 10 8 10 9 8 9 11 12 11 8 10 8 9 10 14
8 9 10 11 9 9 9 8 8 9 8 8 8 9 14 14 9 9 9 9 8 7
Wind_Direction
210 215 209 188 95 46 20 19 9 4 3 3 0 358 357 351 355 347 348 346 339 329
217 221 225 218 225 241 263 328 339 341 344 350 350 352 347 348 348 343 343 333 339 329
225 227 228 225 228 231 236 239 273 305 321 330 334 340 339 337 336 335 339 333 330 332
231 227 226 229 231 230 230 234 252 274 293 307 316 327 325 327 325 327 327 330 329 327
234 229 226 229 226 218 225 224 239 252 268 285 299 313 318 318 317 319 321 324 323 325
223 224 228 227 223 214 213 219 225 233 253 268 280 296 303 296 305 307 309 314 317 322
218 225 229 227 220 216 210 214 217 225 236 248 262 277 285 285 295 296 298 301 307 311
223 232 233 229 224 221 218 221 221 222 229 239 244 254 261 275 284 287 291 293 299 297
221 229 234 233 228 224 226 227 223 227 230 232 238 250 261 275 281 284 285 290 298 294
228 243 249 246 238 234 233 231 230 231 230 235 240 249 261 269 274 275 273 277 285 288
255 261 269 252 248 250 241 232 228 227 226 233 238 245 257 268 268 264 266 267 269 274
328 305 294 281 269 260 247 238 231 229 223 223 238 241 255 265 268 263 263 262 262 263
317 305 296 289 278 270 247 246 234 231 226 221 237 245 252 257 260 264 267 268 264 265
328 319 300 289 279 270 260 249 239 235 228 225 225 246 254 256 255 260 269 272 272 267